Theta_e
303 305 306 307 308 308 307 306 305 305 306 307 309 312 316 318 319 320 319 319 319 318 319 320 320 322 324 328 331 333 334 333 333 333 333 332 332 332 331 331 331 330 329 328 326 325 325 325 327 329 329 329 329 330 331 331 331 331 330 329 329 327 327 324 319 318 319 321 322 322 321 322 324 326 327 328 328 328 327 326 326 324 324 324 324
303 304 305 305 306 306 305 305 304 303 304 306 307 308 310 313 316 318 319 319 319 319 319 319 320 321 321 323 327 332 334 333 333 333 332 331 331 331 331 330 331 330 329 328 327 327 326 326 329 329 329 328 329 330 331 332 332 331 331 330 329 327 326 324 319 316 317 316 317 319 321 323 325 326 328 329 329 329 327 326 325 325 325 326 325
304 304 304 304 305 305 304 304 304 303 302 304 306 307 307 309 311 314 315 317 319 319 319 320 320 320 320 321 325 330 332 331 332 333 332 331 330 331 331 330 330 330 329 328 328 327 326 327 329 328 329 329 328 329 330 331 331 329 328 328 327 327 325 322 317 316 317 317 320 323 323 323 326 327 328 329 329 329 328 327 326 325 326 326 326
304 303 303 303 304 304 304 304 304 304 304 303 304 306 307 307 308 310 312 314 316 318 320 321 320 319 319 320 322 327 328 328 329 330 331 332 330 330 330 330 329 329 330 329 328 327 326 327 327 327 329 329 329 329 329 329 328 327 326 325 325 324 322 321 320 320 319 320 324 327 326 327 329 329 329 329 329 330 330 329 327 325 326 325 324
303 302 301 301 302 303 304 305 304 305 305 304 303 304 306 307 307 307 308 310 313 316 321 321 319 319 319 319 320 322 323 324 325 325 326 330 331 331 330 329 329 329 329 329 329 328 326 326 327 327 329 330 329 328 328 327 327 326 326 325 324 322 322 322 324 325 324 323 325 327 328 330 330 329 329 328 329 331 331 328 326 325 325 325 324
301 301 301 300 301 301 303 304 305 305 305 304 303 303 304 305 306 306 307 307 308 312 319 319 317 317 319 319 319 319 320 322 323 322 322 325 329 331 331 330 329 329 329 329 328 328 327 326 325 326 327 328 329 328 327 326 325 326 327 327 326 324 324 325 325 327 329 328 327 328 329 329 330 330 329 328 329 331 330 328 327 326 327 327 327
302 301 301 301 300 300 301 302 303 304 304 305 305 304 303 303 303 304 305 306 306 308 313 316 316 316 317 318 319 319 319 320 321 322 321 321 324 327 329 330 330 329 329 328 328 327 327 327 326 326 327 328 328 328 327 325 325 327 328 327 327 326 327 327 327 328 329 329 329 329 329 329 330 330 330 329 329 330 329 329 328 328 328 329 329
303 302 302 302 302 301 301 301 301 302 303 304 305 305 304 303 303 302 303 305 306 306 307 310 313 315 316 317 317 318 318 318 319 320 321 320 320 323 326 328 326 327 328 327 326 326 326 326 326 326 327 328 329 328 326 325 326 327 327 326 326 325 325 327 328 328 328 328 328 326 326 327 328 330 331 330 329 330 329 329 329 329 329 329 329
303 303 303 303 303 302 301 301 302 303 304 304 305 305 304 303 303 302 302 302 304 305 306 306 308 310 313 316 317 317 317 317 318 318 319 320 320 321 324 323 321 323 326 326 325 324 320 317 316 318 318 319 322 324 324 324 323 322 320 320 320 319 318 319 322 325 325 326 325 323 321 320 322 325 328 329 329 328 328 329 329 328 328 328 328
303 303 303 303 303 302 302 302 302 302 303 303 303 304 304 303 302 302 302 302 303 304 305 305 306 306 308 311 314 316 317 317 317 317 318 320 321 321 321 320 319 322 325 325 323 321 317 312 309 309 310 309 312 314 316 318 317 314 312 311 312 312 311 311 313 316 318 318 318 317 315 313 314 317 319 322 325 327 327 327 327 326 326 326 326
304 303 303 303 303 303 302 302 301 301 301 301 301 302 302 302 301 301 302 303 303 303 304 305 306 306 306 307 310 313 315 316 317 317 318 319 321 320 320 320 321 323 324 323 320 317 316 314 310 309 309 308 308 308 309 311 311 310 309 308 308 307 307 307 308 309 310 311 311 311 310 309 310 312 312 314 318 321 323 324 324 324 323 323 323
303 303 303 303 303 303 302 301 300 300 300 300 300 300 300 300 300 300 302 303 303 304 304 305 305 306 306 306 307 310 314 316 317 318 318 318 319 319 320 322 323 324 323 320 316 314 313 313 312 311 310 310 309 309 308 308 308 308 308 308 308 307 306 307 306 307 307 307 309 309 309 307 306 308 310 311 312 314 318 321 321 321 321 320 320
302 303 303 303 303 303 301 300 300 300 300 300 300 300 300 300 299 300 301 303 304 304 304 305 305 306 306 306 306 310 314 317 319 320 319 319 319 319 320 322 323 323 322 319 315 313 312 312 312 311 311 311 310 310 310 309 309 309 309 309 309 308 308 308 307 307 306 306 307 308 309 308 307 307 308 309 308 309 313 317 317 317 318 318 317
302 302 303 303 303 302 301 300 300 299 299 299 300 300 300 300 300 300 301 302 304 304 304 305 305 306 306 306 307 309 313 317 320 321 321 321 320 320 320 321 322 322 321 318 313 312 311 311 311 311 311 312 312 311 311 311 311 311 311 311 311 310 310 310 309 308 308 307 307 308 308 309 309 309 309 308 308 308 309 311 311 311 312 313 313
301 301 302 303 302 301 301 300 299 298 299 299 299 299 299 300 300 300 301 302 303 304 304 304 305 305 306 306 307 310 312 316 320 321 322 322 322 322 322 322 321 320 317 314 311 311 311 311 311 312 313 313 313 313 312 312 312 312 312 312 312 311 311 311 310 310 309 308 307 307 307 307 308 308 308 308 308 308 308 308 308 308 308 308 308
302 302 302 302 300 300 299 299 298 298 298 299 299 299 299 299 300 300 301 303 303 303 304 304 304 305 305 306 308 310 312 316 319 320 321 322 322 322 322 319 317 315 312 311 310 311 311 311 312 312 313 314 313 312 312 311 310 310 310 310 310 310 310 310 309 309 309 309 308 307 307 306 306 306 306 306 307 307 307 307 307 307 307 308 307
300 301 301 300 299 299 298 298 299 299 299 299 299 299 299 299 299 300 301 303 304 304 304 304 304 305 305 307 309 310 313 316 318 319 320 321 321 321 318 313 311 310 309 309 310 310 311 311 312 312 313 313 312 312 311 309 308 308 308 308 309 309 309 309 308 308 307 308 308 308 307 306 305 305 305 304 305 305 305 304 305 307 308 309 309
299 299 300 299 299 299 299 299 300 300 300 299 299 299 299 300 300 300 302 304 304 305 305 305 305 305 306 308 309 311 314 316 318 319 320 320 321 319 314 310 307 307 308 309 309 309 310 311 311 311 312 311 311 309 308 308 307 307 307 306 307 307 307 307 307 306 306 306 306 307 307 307 306 305 304 303 303 302 302 302 303 305 307 308 309
297 298 298 299 299 300 300 300 301 301 300 300 299 299 299 299 300 301 302 303 304 305 305 305 305 306 307 309 310 312 314 316 318 319 319 319 318 315 310 307 306 306 307 308 309 309 310 310 310 310 310 309 308 307 307 307 306 305 305 305 305 305 305 305 305 305 304 304 304 304 304 305 305 305 304 303 302 301 301 301 300 301 303 304 306
295 296 297 298 299 299 300 300 300 300 299 299 299 299 298 299 299 300 301 302 303 304 304 305 305 306 307 309 311 313 315 316 317 317 316 315 312 310 307 306 306 306 307 308 308 308 308 308 308 308 307 307 306 306 305 305 304 304 304 303 303 303 302 302 302 302 302 302 301 301 302 302 303 303 303 303 303 302 302 301 300 300 300 300 301
291 293 294 296 297 298 298 299 299 298 298 298 298 298 298 298 299 300 300 301 302 303 303 304 305 306 307 308 310 312 314 314 314 314 313 311 309 308 306 306 306 307 307 307 307 306 306 306 306 306 305 305 304 304 304 303 303 302 302 302 302 301 301 300 300 300 300 300 300 300 300 300 300 300 301 301 301 302 302 302 301 301 301 300 300
288 289 290 292 294 295 296 297 297 297 297 297 297 297 298 298 298 299 299 300 301 301 302 303 304 305 306 307 308 310 311 311 311 312 310 308 307 306 306 306 306 306 306 306 305 305 305 305 304 304 303 303 303 302 302 301 301 300 300 300 300 300 300 299 299 299 299 299 299 299 299 298 298 298 299 299 299 299 299 299 299 299 299 299 298
287 288 288 290 291 293 294 295 296 296 296 296 296 296 297 297 298 298 299 299 300 301 301 302 303 304 305 305 306 307 308 308 308 308 307 306 305 305 305 305 305 305 305 304 304 304 303 303 302 302 301 301 301 300 299 298 298 298 298 298 298 298 297 297 297 297 297 298 298 298 298 297 297 297 297 296 296 296 296 296 296 296 295 295 295
285 286 287 288 290 291 292 292 293 294 294 294 295 295 296 296 296 297 298 298 299 300 301 301 302 302 303 304 304 305 305 305 305 305 305 304 304 304 304 304 304 304 303 303 302 302 301 300 300 299 299 298 298 297 297 297 297 297 297 297 297 297 296 296 296 296 296 295 295 295 295 295 295 295 294 293 293 293 293 293 293 292 292 292 292
282 283 285 287 287 288 289 290 291 291 292 293 294 294 294 295 295 296 297 297 298 299 300 300 301 301 302 302 302 303 303 303 303 303 303 303 304 304 303 303 303 302 302 301 300 299 299 298 297 297 296 296 296 295 295 295 295 295 295 295 295 295 294 294 294 293 293 293 292 292 292 292 292 291 291 291 291 291 291 291 291 291 290 290 290
280 280 282 284 285 285 286 287 288 289 290 291 292 293 293 294 294 295 296 296 297 297 299 299 300 300 300 301 301 302 302 302 302 303 303 303 303 302 302 301 301 300 299 298 297 296 296 295 295 294 294 294 293 293 293 292 292 292 292 292 292 291 291 291 291 291 290 290 290 290 290 290 290 290 290 290 290 290 290 290 290 290 290 290 290
278 279 279 282 283 284 284 285 286 287 288 289 289 291 292 293 293 294 295 295 296 296 297 298 298 299 299 300 300 300 301 301 302 302 302 302 301 301 300 299 298 297 296 295 294 294 293 292 292 292 292 292 291 291 291 291 291 291 290 290 290 290 290 290 290 290 289 289 289 289 289 289 289 289 289 289 289 289 289 290 289 289 289 289 289
277 278 279 279 280 281 282 283 284 285 287 288 288 288 290 292 292 293 294 294 295 295 296 297 297 298 298 298 298 299 299 300 300 300 300 300 299 299 297 296 295 294 293 292 292 291 291 291 291 291 291 291 291 291 290 290 290 290 290 290 290 289 289 289 289 289 289 289 289 289 289 289 289 289 288 288 288 288 288 288 288 288 288 288 288
275 276 277 278 278 279 280 281 282 283 285 286 286 286 288 290 291 291 292 293 293 294 295 295 296 296 296 296 297 297 297 298 298 298 298 297 296 295 294 293 292 291 291 290 290 290 290 290 290 290 290 290 290 290 290 290 290 289 289 289 289 289 289 289 289 288 288 288 288 288 288 288 288 288 288 288 287 287 287 287 287 287 287 287 287
272 273 275 277 277 278 279 280 281 281 282 284 284 284 285 288 289 290 291 291 292 292 293 294 294 295 295 294 294 294 294 295 295 295 294 294 293 292 291 291 290 289 289 289 289 290 290 290 290 290 289 289 289 289 289 289 289 289 289 289 288 288 288 288 288 288 288 288 288 288 287 287 287 287 287 287 287 286 286 286 286 286 286 286 286
271 272 274 276 276 277 279 280 280 280 280 281 282 282 283 286 287 288 289 290 290 291 291 292 292 293 293 292 292 292 292 292 292 292 291 291 290 290 289 289 288 288 289 289 289 289 289 289 289 289 289 288 288 288 288 288 288 288 288 288 288 288 287 287 287 287 287 287 287 287 287 287 286 286 286 286 286 286 286 286 286 286 286 286 286
269 270 272 274 275 276 277 278 279 279 279 279 280 281 281 284 286 287 287 288 289 289 290 290 291 291 291 291 291 290 290 290 290 289 289 289 288 288 288 288 288 288 288 288 288 288 288 288 288 288 288 288 288 287 287 287 287 287 287 287 287 287 287 287 287 286 286 286 286 286 286 286 286 286 286 285 285 285 285 285 285 285 285 285 285
267 268 270 272 273 274 275 276 277 278 278 277 278 279 280 281 284 285 286 286 287 288 289 289 289 289 289 289 289 289 288 288 288 288 287 287 287 287 287 287 287 287 287 287 287 287 287 287 287 287 287 287 287 286 286 286 286 286 286 286 286 286 286 286 286 286 286 286 286 286 286 286 286 285 285 285 285 285 285 285 285 285 285 285 285
267 268 269 270 272 273 274 275 276 277 277 277 277 278 279 280 282 284 285 286 286 287 288 288 288 288 287 287 287 287 287 287 287 287 287 286 286 286 286 286 286 286 286 286 286 286 286 286 286 286 286 286 286 286 286 286 286 286 286 286 286 286 286 286 286 285 285 285 285 285 285 285 285 285 285 285 285 285 285 285 285 285 285 285 285
267 268 269 270 271 272 273 274 275 276 277 277 277 278 279 279 281 283 284 285 286 286 286 286 286 286 286 286 286 286 286 286 286 286 286 286 286 286 286 286 286 286 286 286 286 286 286 286 286 286 286 286 286 285 285 285 285 285 285 285 285 285 285 285 285 285 285 285 285 285 285 285 285 285 285 285 285 285 285 285 285 285 285 285 285
266 267 268 269 270 271 271 272 273 274 276 276 276 277 278 279 280 282 283 284 285 286 286 286 285 286 286 285 286 286 286 285 285 285 285 285 285 285 285 285 285 285 285 285 285 286 286 286 286 285 285 286 285 285 285 285 285 285 285 285 285 285 285 285 285 285 285 285 285 285 285 285 285 285 285 285 285 285 285 285 285 285 285 285 284
266 267 268 269 269 270 270 271 272 273 274 275 276 277 277 278 280 282 282 283 285 285 285 285 285 285 285 285 285 285 285 285 285 285 285 285 285 285 285 285 285 285 285 285 285 285 285 285 285 285 285 286 285 285 285 285 285 285 285 285 285 285 285 285 285 285 284 285 285 285 285 285 285 285 285 285 285 285 285 285 285 285 285 285 284
266 267 268 269 269 269 270 271 271 273 273 274 275 276 276 277 279 281 282 283 284 285 285 285 285 285 285 285 285 285 285 285 285 285 285 285 285 285 285 285 285 285 285 285 285 285 285 285 285 285 285 285 285 285 285 285 285 285 284 284 285 284 284 284 284 284 284 284 284 284 284 284 284 284 284 285 285 285 285 285 285 285 284 284 284
265 266 267 268 269 269 270 270 271 273 273 274 274 275 276 277 278 280 281 282 284 284 284 284 284 284 284 284 284 284 284 285 285 285 285 285 284 284 284 284 284 285 285 284 284 285 285 285 285 285 285 285 285 285 285 285 284 284 284 284 284 284 284 284 284 284 284 284 284 284 284 284 284 284 284 284 284 284 284 284 284 284 284 284 284
265 266 267 267 268 269 270 270 271 272 273 273 274 274 274 276 278 280 281 282 283 284 284 284 284 284 284 284 284 284 284 284 284 284 284 284 284 284 284 284 284 284 284 284 284 284 285 285 284 285 284 285 285 285 284 284 284 284 284 284 284 284 284 284 284 284 284 284 284 284 284 284 284 284 284 284 284 284 284 284 283 284 283 284 284
264 265 266 267 268 268 269 269 270 271 272 273 273 273 273 275 278 280 281 282 283 283 284 284 284 284 284 283 283 284 284 284 284 284 284 284 284 284 284 284 284 284 284 284 284 284 284 284 284 284 284 284 284 284 284 284 284 284 284 284 284 284 284 284 284 284 284 284 283 284 284 284 284 284 283 284 283 283 283 283 283 283 283 283 283
265 265 266 267 268 268 268 269 269 270 271 272 272 272 272 273 277 279 281 282 283 283 283 283 283 283 283 283 283 283 284 284 284 284 284 284 284 284 284 284 284 284 284 284 284 284 284 284 284 284 284 284 284 284 284 284 284 284 284 284 284 284 284 283 284 283 283 284 283 283 283 283 283 283 283 283 283 283 283 283 283 283 283 283 283
265 265 266 267 267 268 268 268 268 270 271 271 272 272 272 272 276 279 281 282 283 283 284 283 283 283 283 283 283 283 283 284 284 284 284 284 284 284 284 284 284 284 284 284 284 284 285 285 285 284 284 284 284 284 284 283 283 283 284 284 283 283 283 283 283 283 283 283 283 283 283 283 283 283 283 282 282 282 282 282 282 282 282 282 282
264 265 265 266 267 267 268 268 268 269 270 270 271 272 272 272 274 278 280 281 282 283 284 283 283 283 283 283 283 283 283 284 284 284 284 284 284 284 284 284 284 284 284 284 284 284 284 285 285 284 284 284 284 284 283 283 283 283 283 283 283 283 283 283 283 283 283 283 283 283 283 283 282 282 282 282 282 282 282 282 282 282 282 282 282
263 264 264 265 266 267 267 267 268 268 269 270 271 272 272 272 273 276 277 279 280 281 282 282 282 283 283 283 283 283 284 284 284 284 284 284 284 284 284 284 284 284 284 284 284 284 284 284 284 284 284 284 284 284 283 283 283 283 283 283 283 283 283 283 283 283 283 282 282 282 282 282 282 282 282 282 282 282 282 282 282 282 282 282 282
263 263 264 264 265 266 266 267 268 268 268 269 271 272 272 272 273 274 276 276 277 278 279 280 281 282 282 282 283 283 283 284 284 284 284 284 284 284 284 284 284 284 284 284 284 284 284 284 284 284 284 284 284 284 284 283 283 283 283 283 283 283 283 283 282 282 282 282 282 282 282 282 282 282 282 282 282 282 282 282 282 282 282 282 282
262 263 263 263 264 265 266 267 268 268 269 269 270 272 272 272 272 273 274 275 276 277 278 279 280 280 281 281 282 283 283 283 283 284 284 284 284 284 284 284 284 284 284 284 284 284 284 284 284 284 284 284 284 284 283 283 283 283 283 283 283 283 283 282 282 282 282 282 282 282 282 282 282 282 282 282 282 282 282 282 281 281 281 281 281
261 262 262 262 263 265 266 267 268 268 268 269 269 270 272 272 272 272 273 274 275 276 277 278 279 280 280 281 281 282 282 283 283 283 283 283 283 283 284 284 284 284 284 284 284 284 284 284 284 284 283 283 283 283 283 283 283 283 283 283 282 282 282 282 282 282 282 282 282 282 282 282 282 282 282 282 282 281 281 281 281 281 281 281 281
261 261 261 262 263 264 265 267 268 267 268 269 269 269 271 272 272 272 272 273 275 276 276 277 278 279 280 281 281 281 281 282 282 282 282 283 283 283 283 284 284 284 284 284 284 284 284 284 283 283 283 283 283 283 283 283 282 282 282 282 282 282 282 282 282 282 282 282 282 282 282 282 282 282 281 281 281 281 281 281 281 281 280 280 280
260 261 261 261 262 263 265 266 267 267 267 268 269 269 270 271 272 272 273 273 274 275 276 277 278 279 280 280 281 281 281 281 281 282 282 282 283 283 283 283 283 283 283 283 283 283 283 283 282 282 282 283 283 283 282 282 282 282 281 281 281 281 281 281 281 281 281 281 281 281 281 281 281 281 281 281 281 281 281 281 280 280 280 280 280
259 260 261 261 262 263 264 265 266 266 267 267 268 269 269 270 271 272 273 273 274 275 276 277 278 279 279 280 280 280 280 280 281 281 281 282 282 282 282 282 282 282 282 282 282 282 282 282 282 282 282 282 282 282 282 281 281 281 281 281 281 281 281 281 281 281 281 281 281 281 281 281 281 281 280 280 280 280 280 280 280 280 279 279 279
Wind_Speed
20 18 17 17 19 21 23 23 21 21 22 25 27 28 28 30 32 33 31 29 28 26 24 23 21 20 21 22 25 26 24 24 26 27 28 27 26 25 25 26 27 25 24 24 24 23 22 21 22 21 21 24 26 26 24 22 20 18 17 18 20 21 21 21 18 17 19 20 21 21 22 23 23 22 22 22 21 21 21 21 21 19 18 17 15
21 20 19 19 21 23 25 25 25 24 23 24 26 28 28 28 29 30 30 31 32 31 28 27 24 22 21 19 22 28 29 28 29 29 29 28 26 26 28 28 27 27 26 24 23 23 23 24 23 20 19 20 21 22 22 21 18 16 16 17 19 21 21 21 19 17 19 21 21 22 23 24 24 23 22 20 18 18 18 19 20 18 16 16 15
21 21 21 21 21 24 26 26 26 25 23 24 26 27 27 28 28 27 27 28 31 31 30 30 28 26 24 21 21 26 28 25 28 32 32 32 31 29 30 29 28 27 27 26 25 25 26 27 25 22 19 18 18 19 19 18 16 17 18 19 21 22 22 21 19 18 18 18 18 20 23 24 24 24 23 21 18 17 16 15 18 18 16 16 14
22 22 22 22 22 23 25 25 26 25 24 23 25 27 27 27 27 27 26 26 27 28 29 29 29 28 27 25 23 24 25 20 19 25 29 32 35 35 32 31 28 26 27 27 27 26 26 28 28 26 23 20 17 17 18 18 17 18 19 19 20 22 23 20 18 18 18 18 17 18 21 21 21 22 20 18 17 18 16 14 17 18 16 15 13
23 23 22 21 22 22 22 23 24 25 25 23 23 25 27 27 26 26 26 25 25 26 27 28 29 29 28 27 25 24 25 21 18 20 23 25 30 35 36 33 30 28 27 27 27 25 25 26 27 27 25 23 21 20 20 20 18 17 16 17 19 21 21 18 16 16 18 20 20 19 17 16 19 20 19 17 16 17 17 15 16 15 12 12 12
24 24 23 22 23 22 21 21 21 22 24 24 23 23 25 27 27 26 25 24 24 25 27 29 29 29 30 31 31 29 27 24 23 23 23 21 20 25 30 31 29 30 31 30 29 27 25 25 26 26 24 24 24 23 22 21 20 18 17 18 18 19 19 19 19 19 18 20 23 25 24 22 20 16 15 16 15 16 16 13 13 13 10 10 11
23 24 24 23 23 23 22 21 21 21 22 23 24 23 22 24 26 28 27 26 25 25 27 30 31 31 31 31 32 32 30 27 25 24 25 26 22 19 20 23 24 27 31 32 30 29 29 28 28 28 27 27 28 28 27 24 22 20 19 20 19 18 18 20 22 23 22 20 20 22 26 30 30 24 18 14 12 16 18 15 14 13 11 11 11
22 22 22 21 20 19 20 20 19 19 19 21 22 23 22 21 23 26 29 29 28 27 27 29 32 33 33 32 31 30 29 28 25 24 24 28 28 21 17 17 17 18 21 23 23 22 23 23 23 24 23 24 27 29 29 26 22 19 18 17 16 15 14 15 17 19 19 18 15 11 11 16 22 28 28 20 14 15 16 16 15 14 14 15 16
21 21 20 19 17 16 15 15 15 15 16 18 19 21 22 20 20 23 27 29 29 29 29 29 30 33 34 35 34 33 31 28 26 24 23 25 29 28 23 19 16 16 17 17 17 16 13 11 11 13 14 14 17 21 23 21 17 14 12 12 11 9 7 9 11 14 15 15 13 9 8 9 10 13 18 16 13 13 12 14 15 13 14 15 13
19 19 18 18 16 14 12 12 13 14 16 18 19 21 22 21 20 21 25 27 28 29 30 30 30 31 33 35 36 36 36 34 30 27 25 24 26 29 28 24 20 19 19 18 18 16 13 9 6 6 6 6 7 9 11 14 13 8 4 3 5 6 6 7 8 11 13 14 14 14 13 15 14 13 13 13 6 3 5 8 9 8 8 9 9
14 14 15 15 14 12 11 11 12 14 16 17 18 20 23 24 23 22 24 26 27 28 28 29 30 31 33 34 35 36 38 38 37 34 31 28 26 26 26 24 22 23 23 23 20 17 16 14 11 9 7 5 4 2 1 5 7 6 1 4 5 5 7 8 8 9 11 13 15 15 12 13 15 14 15 17 15 11 8 6 5 7 9 10 11
10 11 11 12 11 11 12 14 16 16 17 17 17 18 20 22 23 23 23 26 28 28 27 27 29 31 33 33 34 35 36 36 38 38 37 33 30 27 25 25 26 27 27 25 22 19 18 17 15 14 12 9 7 5 2 3 4 2 3 4 5 6 8 9 10 10 11 12 12 12 11 9 10 12 13 14 15 16 15 12 10 11 12 12 11
10 11 12 12 11 13 17 19 19 20 20 21 21 21 21 21 21 21 22 25 28 29 28 26 26 28 31 32 33 34 34 34 34 36 37 36 34 32 29 29 30 30 29 26 22 20 19 17 16 15 14 13 13 12 10 10 10 8 9 11 11 10 10 11 11 11 11 12 11 11 11 11 10 10 12 12 13 15 17 17 16 15 14 14 14
11 12 13 13 13 15 17 17 17 19 20 22 23 23 23 22 21 20 20 23 26 29 29 27 25 25 27 30 32 33 33 33 33 34 35 36 36 34 33 33 33 32 30 27 23 21 19 18 17 16 15 15 16 15 15 16 17 17 17 18 17 17 18 17 16 15 14 13 12 11 10 11 12 11 12 14 14 15 16 18 19 18 18 18 18
14 14 13 11 10 11 13 15 17 18 19 21 22 23 24 23 22 21 19 21 25 28 29 28 27 25 25 27 30 32 32 32 34 34 34 36 36 35 35 35 35 33 30 27 25 24 22 21 19 18 18 18 19 20 21 22 22 22 21 21 21 21 21 20 19 19 19 18 15 14 12 10 10 10 11 12 14 16 17 17 19 19 19 20 19
8 6 5 7 9 10 12 15 18 19 19 20 21 22 23 23 22 20 18 19 23 26 27 28 29 26 25 26 27 29 31 32 34 35 36 37 37 38 39 38 36 34 31 30 28 27 25 23 22 21 20 21 21 22 22 22 21 20 19 18 18 18 19 18 17 17 18 18 17 16 14 11 10 10 10 11 12 14 17 18 17 15 15 17 18
17 14 11 14 16 16 17 16 17 18 18 19 19 20 21 21 21 18 16 17 21 23 25 27 28 27 26 25 25 27 29 32 34 35 36 38 40 40 40 38 36 34 33 31 29 27 24 23 21 20 19 18 19 19 18 16 15 14 13 13 13 14 14 14 15 15 15 16 17 17 15 12 12 12 11 11 11 13 15 15 14 12 11 12 13
26 23 19 18 17 18 18 17 16 16 17 17 18 19 19 19 18 16 15 17 20 22 24 26 27 27 26 25 25 25 27 31 34 35 37 39 42 42 41 39 37 35 33 30 27 25 22 21 19 18 16 15 15 14 13 13 12 11 10 10 11 11 11 12 13 13 13 13 14 15 15 15 15 14 12 10 9 10 11 12 12 11 12 11 11
29 27 24 21 18 17 17 15 14 15 16 16 16 18 18 18 17 15 15 17 20 21 23 25 25 26 26 25 24 24 26 30 33 36 38 41 43 42 40 37 35 32 28 26 23 21 20 19 17 15 14 14 13 12 12 11 10 10 10 10 10 10 10 11 11 12 11 11 10 10 11 13 15 15 14 12 9 8 9 9 10 10 11 13 13
29 28 27 24 20 17 16 16 15 15 15 15 16 18 18 18 16 15 16 18 19 21 23 24 25 25 25 25 25 25 26 29 32 34 37 37 36 35 32 30 28 25 23 21 20 19 18 17 15 14 13 13 12 11 11 10 10 11 11 10 10 10 9 10 10 10 10 10 10 10 10 10 12 13 14 14 13 13 12 11 11 11 12 14 14
30 29 28 27 24 20 18 17 17 16 16 15 16 16 16 17 16 15 16 18 19 21 23 23 24 25 25 24 25 25 25 27 28 30 30 29 29 29 28 28 26 24 21 20 19 18 17 16 15 14 13 13 11 11 11 11 12 12 11 11 11 11 11 10 10 10 10 10 9 9 9 10 10 10 11 12 12 14 15 15 15 16 17 18 18
30 29 28 27 27 25 22 21 20 18 17 15 14 13 13 15 15 15 16 18 19 20 22 22 23 23 24 24 24 25 24 25 26 27 27 28 29 29 29 27 25 23 21 20 19 18 17 16 15 15 14 13 12 12 13 13 13 13 13 12 12 12 12 12 12 12 12 11 11 11 10 10 11 11 11 11 12 13 14 15 16 17 18 18 19
28 27 27 26 25 23 22 22 21 20 18 16 15 13 12 13 14 14 16 17 18 19 20 21 22 22 23 23 24 24 25 25 27 28 29 29 30 29 27 25 23 22 21 20 19 18 17 16 16 16 16 15 15 15 15 15 15 14 13 13 12 12 12 12 12 12 12 12 13 13 13 13 13 13 12 11 12 12 12 13 13 14 14 14 14
27 26 25 25 23 21 20 21 21 22 21 18 16 14 13 13 13 13 15 16 18 19 19 20 21 21 22 23 23 24 26 27 29 30 30 30 29 27 26 24 23 22 22 21 20 18 18 18 18 18 18 18 18 18 17 17 16 15 14 13 12 12 12 12 12 11 12 12 12 12 13 13 12 11 11 10 9 9 9 8 9 8 8 8 8
30 29 26 26 26 25 24 22 20 20 21 18 15 13 13 13 13 14 15 16 17 18 19 19 20 21 21 22 23 25 27 28 29 29 29 29 28 27 25 24 24 24 23 23 22 21 21 22 21 21 21 20 19 19 18 17 15 14 13 12 12 11 11 11 10 10 10 9 9 9 9 9 8 7 7 6 5 5 4 3 3 3 2 3 4
31 31 29 26 26 26 25 24 21 19 19 18 15 13 14 15 15 15 16 16 16 17 19 19 20 21 21 22 24 25 26 27 28 28 28 28 28 27 27 26 26 26 26 26 25 25 25 24 23 22 21 20 20 18 17 16 15 13 12 11 11 10 10 9 9 8 8 8 7 7 7 7 6 6 6 5 4 4 3 2 2 2 3 4 5
29 30 30 26 25 26 26 25 23 19 17 17 17 16 17 17 16 16 16 16 16 17 18 20 20 22 22 23 25 26 27 28 29 29 29 29 29 29 29 29 28 28 28 28 27 27 26 25 24 23 22 21 21 20 18 17 16 14 14 13 12 11 11 11 10 10 10 9 9 9 9 9 8 8 7 7 6 6 5 4 5 5 5 5 6
29 29 30 30 28 27 27 25 24 22 17 14 16 18 18 17 16 16 15 15 16 17 18 20 21 22 23 24 26 27 28 29 30 30 31 31 31 31 31 31 30 29 29 28 28 27 27 25 24 24 23 22 21 20 19 18 17 16 15 15 14 14 13 13 12 12 12 11 11 11 10 10 10 9 8 8 7 7 7 6 6 7 6 6 6
31 30 30 31 30 29 28 27 25 23 19 15 16 19 18 15 14 14 14 14 15 17 18 20 21 22 24 25 26 28 29 30 31 32 32 33 32 32 32 31 30 30 30 29 29 28 27 26 24 23 22 21 19 19 18 17 17 17 16 16 15 15 14 14 13 12 12 11 11 10 10 9 9 9 9 8 8 7 7 7 7 7 7 8 8
30 29 29 29 30 29 28 26 24 22 21 17 17 18 17 13 10 11 11 12 14 16 19 21 23 24 25 26 27 28 29 30 31 32 32 32 31 31 31 30 31 31 30 29 28 27 25 24 23 22 21 20 19 18 17 17 16 16 16 15 14 14 13 13 12 12 11 10 10 9 9 9 8 8 8 7 7 7 7 7 8 8 9 9 10
27 27 28 27 28 28 26 25 23 21 21 19 17 17 14 10 7 7 9 11 14 17 20 22 24 25 26 27 28 28 29 29 30 30 30 30 30 30 30 30 30 30 29 28 26 25 24 23 22 21 21 20 20 19 18 16 15 14 14 14 14 13 12 11 11 10 10 9 8 8 8 7 8 8 7 7 7 7 7 8 8 9 9 10 11
25 27 27 26 27 28 27 25 23 20 19 18 16 16 12 7 4 5 7 10 14 17 20 22 23 25 25 26 27 27 27 28 28 28 29 29 30 30 30 30 29 28 27 26 25 24 24 23 22 21 21 20 20 19 18 17 15 14 13 13 13 12 11 11 10 9 9 8 7 7 6 6 6 7 6 6 6 6 7 7 8 9 10 11 12
25 27 28 26 26 27 26 25 24 21 18 17 15 14 11 5 2 5 7 10 13 16 18 20 22 23 24 25 25 26 27 27 28 28 29 29 29 30 29 29 28 27 26 26 25 24 24 22 21 20 20 20 20 19 18 16 15 14 12 12 12 11 10 10 9 8 7 6 5 4 4 4 5 4 4 4 4 5 6 7 8 9 10 11 12
27 28 28 27 25 26 26 24 22 19 16 13 12 9 7 3 4 8 9 12 14 15 16 18 20 22 23 24 24 25 27 27 28 28 29 29 29 29 28 27 27 26 25 25 24 24 23 22 20 20 19 19 19 18 17 15 14 13 12 11 10 10 9 8 7 6 5 4 3 2 2 2 3 3 3 4 5 6 7 9 10 10 11 12 13
28 28 28 27 26 25 26 25 22 19 16 12 9 5 6 5 6 10 12 14 16 17 18 18 19 20 21 22 23 24 25 26 26 26 27 27 27 27 27 26 25 24 23 23 22 22 22 21 20 19 18 18 18 16 15 13 12 11 10 9 9 8 7 7 6 4 3 2 1 1 2 3 3 4 6 7 8 9 10 11 12 12 13 14 14
27 27 26 26 25 24 25 25 23 21 17 13 9 3 5 6 7 12 14 15 17 18 19 20 20 20 21 21 22 22 23 24 24 24 24 24 25 25 24 23 23 22 22 21 21 20 20 19 18 17 16 16 16 15 13 12 11 9 8 8 7 7 6 5 4 3 2 1 1 2 4 5 6 7 9 10 11 12 13 14 14 14 14 15 16
24 23 23 23 22 22 22 22 22 21 18 14 10 3 3 5 9 13 15 16 18 19 19 20 21 22 22 22 22 22 22 23 22 22 22 22 22 22 22 21 20 20 20 19 18 18 18 17 16 16 15 14 14 13 11 10 9 8 7 6 6 5 4 3 3 1 1 1 2 4 5 6 8 9 11 12 13 15 16 17 17 17 16 16 17
23 22 21 21 20 20 19 19 20 20 17 15 11 4 3 5 9 14 15 17 20 20 21 21 21 22 22 22 22 22 22 22 22 21 21 20 20 20 20 19 18 18 18 17 16 16 15 15 15 14 13 12 11 11 10 8 8 7 6 6 5 4 3 2 1 0 1 2 4 4 6 7 9 10 11 13 15 16 17 18 19 19 19 19 19
23 22 21 21 20 19 17 17 17 17 15 13 11 5 4 6 10 13 15 18 21 21 21 21 21 21 22 22 21 21 21 21 20 20 20 20 19 19 19 18 16 16 16 16 14 13 13 13 13 12 12 10 9 9 8 7 7 6 6 6 5 4 3 2 1 1 3 4 5 6 6 8 9 11 12 13 15 17 18 18 20 21 21 21 21
23 22 21 20 19 18 17 16 15 16 14 11 12 7 4 7 10 13 15 18 21 21 21 21 20 20 20 21 21 21 21 20 20 20 20 19 18 18 17 17 16 15 15 14 13 11 10 10 10 10 10 8 8 7 7 6 6 6 6 5 5 4 3 2 2 2 3 5 6 7 8 9 10 12 13 14 15 17 18 18 19 21 22 23 23
23 22 20 20 18 16 16 15 14 15 13 10 11 10 4 7 10 13 15 18 20 22 22 22 21 20 19 19 20 20 20 20 20 20 19 18 18 17 16 15 15 14 13 12 12 10 9 9 9 9 9 8 7 6 6 6 6 6 5 5 5 4 4 3 3 4 5 6 7 8 9 10 11 13 14 15 16 17 17 18 19 20 21 23 24
22 20 19 20 18 15 14 13 12 12 12 10 10 10 5 5 9 13 15 18 20 22 22 22 21 21 19 18 18 18 18 19 19 19 18 17 17 16 15 14 13 12 11 10 10 9 8 7 7 8 8 7 7 6 6 6 6 6 6 6 5 5 5 5 6 6 7 7 8 9 10 11 12 13 14 15 16 17 17 18 19 20 21 23 24
22 20 19 19 18 16 14 13 12 11 10 10 9 9 7 2 9 13 15 18 21 22 22 21 20 20 20 18 18 17 17 17 17 17 16 16 16 15 14 12 11 10 9 8 8 7 6 5 6 7 7 6 5 5 6 7 7 7 7 7 8 8 7 8 8 8 9 10 10 11 12 12 13 14 14 15 16 17 18 19 20 21 22 23 24
22 21 19 19 18 16 14 13 12 11 10 9 8 7 6 0 7 13 16 18 21 22 22 21 19 19 19 18 18 17 16 15 15 15 15 14 14 13 12 12 10 9 8 7 6 6 5 4 5 6 6 5 4 5 6 7 7 8 8 9 10 10 10 10 11 11 11 11 11 12 13 13 14 14 14 15 16 17 18 20 21 22 23 24 24
22 20 18 17 17 16 14 12 11 10 10 9 8 6 5 2 6 11 14 17 20 22 22 21 20 20 19 19 18 17 16 15 15 14 13 13 12 12 11 10 9 8 7 6 6 5 4 3 4 5 4 4 5 6 6 6 7 8 8 9 10 11 12 12 12 12 12 11 12 13 14 14 14 14 15 15 16 17 19 20 21 22 23 24 24
22 20 18 17 16 15 14 12 10 10 10 9 8 6 5 3 5 9 11 14 17 20 21 21 21 21 20 20 19 18 17 15 15 14 13 12 11 10 9 9 8 8 7 6 5 4 3 2 2 3 2 3 5 6 6 6 7 8 9 9 10 11 12 12 12 12 11 11 12 13 14 15 15 15 16 17 18 19 19 20 21 22 23 23 24
20 19 17 17 16 14 14 12 10 10 10 9 8 7 5 4 4 7 9 11 14 17 18 19 19 20 20 19 18 18 17 16 15 13 12 12 11 10 9 8 8 7 7 6 5 4 2 1 1 1 2 4 5 7 7 7 8 9 10 10 10 11 12 12 12 12 12 12 13 14 15 16 16 17 18 19 20 20 21 21 22 23 23 23 23
18 17 16 16 16 15 14 13 11 10 10 9 8 7 5 4 4 5 7 9 12 15 17 17 17 18 19 18 17 17 17 16 15 14 13 12 11 10 9 8 8 7 5 4 3 2 1 1 2 2 3 4 5 7 8 8 8 10 10 11 11 11 12 12 12 13 13 13 14 15 16 17 17 18 19 20 20 21 21 22 23 23 23 24 23
17 16 15 16 15 14 13 12 12 11 10 8 8 7 5 5 5 5 6 7 10 13 15 15 15 16 16 16 15 15 14 14 14 13 12 11 10 9 8 7 6 5 4 3 3 2 2 2 3 3 4 5 6 7 8 9 9 10 11 11 12 12 13 13 13 13 14 14 15 16 17 18 18 19 20 20 21 21 22 22 22 23 23 24 24
15 15 15 14 13 13 12 11 11 10 9 8 7 7 5 5 6 6 6 7 8 10 12 13 13 14 14 14 13 13 12 12 12 11 10 10 9 8 7 5 4 3 2 2 2 2 2 2 3 4 4 6 7 8 8 9 10 10 11 12 12 13 14 14 14 15 15 16 16 17 18 18 19 20 21 21 22 22 22 22 23 23 23 23 24
15 16 15 13 11 10 10 10 9 9 8 7 7 6 5 5 6 6 6 7 7 8 10 11 11 12 12 12 12 11 11 11 10 9 9 8 7 6 5 4 3 2 1 2 2 2 3 3 4 5 6 7 8 9 9 10 11 11 12 13 14 14 15 15 15 16 16 17 17 18 18 19 19 20 21 21 22 22 23 23 23 23 23 23 23
Wind_Direction
265 261 256 257 260 263 266 267 268 266 261 255 251 250 247 243 242 244 247 250 254 257 259 262 264 265 262 257 253 247 240 236 233 231 227 225 224 223 222 221 223 225 226 232 233 230 227 226 229 232 234 237 238 236 237 241 240 242 243 242 243 247 254 259 257 249 246 251 257 263 268 272 275 276 276 276 273 271 271 267 262 259 262 262 261
269 264 258 256 256 260 264 266 267 267 264 261 255 252 250 249 247 244 245 246 248 252 256 260 263 265 264 258 254 250 246 239 232 226 221 217 215 217 219 217 219 220 222 225 226 224 221 219 222 227 230 237 242 238 236 236 234 238 243 247 252 255 260 263 259 250 247 252 258 264 269 271 272 274 276 274 268 266 267 263 255 251 254 260 263
264 262 259 256 254 257 263 266 269 268 263 260 259 256 251 249 249 247 245 244 245 248 250 254 257 260 261 256 250 247 248 247 236 225 220 216 213 214 217 217 215 215 218 219 219 220 218 216 216 221 226 233 240 242 240 239 238 243 251 255 258 261 263 261 256 249 249 255 259 263 267 271 274 273 271 268 264 261 260 258 253 245 246 252 254
257 260 261 259 256 257 261 265 270 272 268 261 256 256 254 249 247 248 247 245 243 243 244 246 248 250 253 253 248 242 244 247 239 232 230 223 216 215 217 219 216 213 215 217 218 221 222 220 216 216 219 221 226 234 236 239 243 250 258 261 260 260 260 257 253 251 251 252 253 259 266 269 270 272 274 272 263 253 248 251 251 243 241 247 246
253 259 263 264 261 256 255 261 267 271 271 267 258 255 255 254 249 246 247 247 244 240 238 239 241 241 243 246 245 241 238 236 235 244 249 241 226 218 214 216 220 221 220 220 222 223 222 221 219 216 218 219 219 223 228 232 238 246 254 259 261 258 254 252 252 256 258 257 255 256 260 260 262 266 269 270 259 245 239 242 244 240 239 248 253
256 261 265 267 266 261 254 252 256 263 269 272 268 259 254 254 253 250 247 246 245 240 234 233 235 237 238 241 243 244 241 236 235 240 247 252 245 230 220 217 220 223 223 222 223 223 222 223 222 220 222 225 225 224 227 231 234 238 242 246 252 253 250 247 245 247 250 254 254 252 252 252 257 263 260 256 247 234 236 238 234 239 248 252 257
260 265 268 269 267 265 262 257 255 259 264 269 271 267 259 254 253 252 249 247 246 242 236 233 234 235 236 239 242 244 244 241 235 232 237 245 251 251 242 233 227 226 225 223 224 225 226 228 228 228 230 231 230 227 226 229 231 233 233 231 230 233 239 239 239 241 242 246 251 255 256 252 251 254 252 244 224 214 220 225 225 233 243 243 242
264 270 272 272 273 273 272 271 269 267 265 263 266 268 266 261 256 254 252 248 245 245 242 238 237 237 238 239 240 240 241 240 236 231 232 237 240 248 252 245 243 243 236 229 227 224 219 218 217 218 221 225 225 222 220 220 222 222 221 217 213 215 226 230 233 239 241 243 245 254 272 267 261 260 252 237 216 209 205 206 216 229 237 238 233
262 270 274 274 277 283 286 283 277 273 268 263 262 264 267 266 262 260 257 251 246 245 245 244 242 241 241 241 242 243 242 242 240 237 235 232 232 237 241 241 244 250 245 231 219 210 202 202 204 202 206 213 216 216 214 211 210 215 223 230 231 233 251 257 250 249 248 247 246 258 297 318 324 296 268 247 223 220 214 211 223 238 244 245 242
257 263 268 274 279 285 288 284 278 273 271 269 267 268 269 270 269 266 261 255 248 243 244 245 244 244 244 243 243 245 245 245 243 241 241 236 231 229 230 233 235 236 234 223 213 209 207 203 191 186 196 204 210 216 220 218 216 214 224 274 276 282 308 307 289 276 271 273 277 287 303 315 332 340 327 330 335 266 250 241 245 259 265 265 269
257 257 260 272 280 282 281 285 287 285 283 280 278 275 274 273 273 269 262 256 251 245 242 244 244 245 246 245 244 244 245 246 245 243 241 239 235 230 225 226 227 222 217 212 211 215 216 212 203 201 207 200 190 158 155 235 236 225 217 31 21 355 351 347 334 315 304 307 306 303 312 323 328 330 327 333 343 342 329 314 298 290 289 289 289
263 263 269 275 270 271 286 296 297 296 295 294 293 289 285 281 276 269 260 254 251 248 244 244 245 246 246 246 246 245 244 245 245 245 243 240 238 234 228 222 217 212 211 211 210 209 211 212 211 217 229 237 246 263 290 300 300 275 274 312 335 343 349 350 346 341 334 333 326 313 308 311 318 323 323 321 322 318 310 306 302 292 288 289 287
271 268 270 264 257 275 294 300 299 296 295 296 297 297 297 295 287 273 261 253 250 250 248 247 248 248 247 246 245 244 242 242 244 245 244 242 239 236 231 223 216 213 214 212 206 205 211 215 218 227 239 251 259 265 270 278 287 290 285 288 292 292 297 306 316 323 330 334 333 324 315 308 304 308 313 313 314 309 301 297 294 290 287 283 281
273 273 268 264 272 291 299 303 306 304 300 297 295 296 296 299 297 285 266 254 250 250 250 250 252 253 250 245 243 242 240 238 240 243 242 240 238 236 233 228 223 220 217 211 205 206 213 221 229 237 245 253 260 268 276 281 282 283 284 285 283 281 281 284 285 285 292 302 311 314 312 309 305 299 298 300 302 302 300 297 294 292 290 286 285
270 273 271 276 289 297 301 311 321 321 315 306 298 295 294 296 300 294 276 258 251 250 250 251 254 258 257 249 241 241 240 236 236 238 237 233 231 229 226 222 218 214 209 206 206 209 214 220 226 234 244 254 264 273 280 282 283 282 281 279 279 280 281 280 277 275 276 279 283 287 290 292 290 289 288 288 290 290 290 290 292 294 297 295 292
304 303 306 324 327 319 316 322 327 328 324 315 305 298 295 295 297 295 281 263 254 252 251 252 253 257 262 256 245 239 236 233 233 235 233 228 225 223 218 212 207 205 202 203 206 209 213 218 225 233 243 254 263 269 273 276 278 276 274 271 271 274 276 273 270 267 267 267 268 271 277 280 275 272 273 274 275 278 279 279 280 285 292 295 294
18 23 11 350 341 336 336 334 329 325 321 316 309 301 297 294 295 293 279 262 255 253 252 252 252 255 260 258 249 239 233 231 232 234 233 227 222 219 213 206 200 199 199 201 204 207 211 218 227 235 242 250 257 260 264 266 265 261 258 256 256 261 262 257 256 257 255 253 252 256 261 263 263 263 267 271 268 268 272 273 271 268 271 281 288
15 14 7 356 347 342 342 338 328 319 315 311 305 300 296 293 294 292 274 255 252 252 251 252 251 253 256 255 249 239 232 231 232 232 232 228 221 215 208 202 197 196 197 199 202 207 213 220 225 229 234 240 244 250 255 252 247 243 239 237 241 248 246 239 240 244 245 245 245 246 248 248 248 249 253 263 267 267 272 275 275 266 257 258 265
11 8 5 1 356 348 342 334 325 319 316 312 304 300 299 297 294 289 271 253 248 248 250 253 253 253 253 251 248 241 234 233 233 230 227 222 216 209 203 198 195 194 196 200 205 210 215 217 217 219 222 224 226 233 237 235 232 230 226 228 233 234 232 228 229 232 232 234 234 233 234 238 241 242 242 244 247 252 259 270 282 280 271 268 268
11 6 3 2 1 359 352 339 327 322 319 314 309 308 308 304 297 284 270 259 252 250 252 254 254 254 252 248 245 241 236 234 233 229 223 217 210 204 199 197 198 200 203 205 207 209 209 208 209 211 211 208 210 217 221 221 220 216 214 218 218 214 211 211 214 217 218 219 220 222 224 229 237 241 243 244 245 248 251 256 267 276 280 283 286
12 9 5 3 1 1 359 349 339 333 329 326 325 323 317 309 300 285 273 265 258 253 252 252 252 252 251 247 243 238 235 232 230 227 222 214 207 204 203 204 206 207 207 206 204 201 199 201 201 200 199 198 202 206 204 205 205 204 206 207 205 203 201 200 202 204 206 210 214 219 222 225 230 237 245 250 250 253 257 260 263 268 273 278 283
11 11 10 8 7 6 2 357 350 345 341 339 337 333 324 312 302 288 275 266 259 254 250 248 248 248 246 243 240 235 230 227 224 221 215 207 204 203 204 205 205 204 203 201 199 197 195 195 194 191 191 191 191 192 191 191 192 193 195 198 199 203 204 205 208 210 213 219 223 228 232 232 235 241 246 250 250 253 258 260 262 265 267 270 274
6 8 10 12 14 14 11 5 357 349 345 343 342 338 325 313 302 288 275 266 259 253 249 245 243 242 241 237 234 229 223 218 215 211 207 204 201 199 199 201 202 201 199 196 194 194 191 188 186 184 183 182 181 180 181 181 182 185 189 193 197 201 204 205 210 213 216 221 224 230 235 238 241 245 247 244 242 245 249 250 253 256 259 262 265
2 2 5 9 13 16 17 15 6 354 346 342 341 338 321 305 296 284 272 264 258 253 248 245 240 237 235 231 226 222 217 213 209 205 203 201 199 198 199 200 200 197 192 189 187 186 183 181 180 178 176 176 176 177 179 180 183 188 192 197 201 204 207 210 212 214 216 217 218 221 224 228 232 236 237 236 235 238 239 241 247 250 254 260 267
0 0 1 4 8 11 12 13 13 6 356 344 336 329 314 300 289 280 271 263 257 252 246 241 237 232 227 223 218 214 211 207 204 202 199 198 198 198 198 195 193 190 185 182 180 177 177 178 178 177 175 175 176 178 179 181 183 188 192 196 199 201 203 205 204 205 204 202 202 202 203 205 207 208 210 212 216 222 228 235 248 261 278 300 313
358 359 359 359 359 2 5 7 9 12 8 356 339 317 305 301 292 281 274 265 256 249 243 236 231 226 221 216 212 208 206 203 201 200 198 197 196 193 190 188 186 184 180 177 176 175 176 177 176 175 173 172 173 172 173 173 174 176 178 179 181 181 180 178 175 173 170 167 165 164 162 157 153 154 155 155 151 145 139 130 100 61 32 21 8
356 355 355 355 353 353 356 360 2 5 8 4 348 324 307 303 298 284 273 266 255 245 238 231 225 221 215 211 207 203 202 200 198 197 195 193 191 187 184 182 180 180 177 175 174 173 173 172 170 167 166 166 165 163 162 162 162 163 163 162 160 158 156 154 151 148 144 139 137 133 129 124 120 119 117 113 110 106 98 89 79 65 49 38 25
353 352 351 352 351 349 349 353 357 0 2 5 359 339 316 304 299 284 270 261 250 240 232 224 218 213 207 203 200 197 196 194 192 190 188 186 184 182 180 178 176 176 174 172 170 168 166 165 163 161 161 161 161 159 158 157 156 156 155 154 152 149 146 143 140 137 134 131 128 123 119 115 113 111 107 101 96 90 82 74 68 60 51 43 34
353 353 351 348 347 346 345 346 353 360 2 6 10 354 328 307 296 280 263 250 240 229 222 214 207 201 196 192 190 187 186 185 183 182 180 179 177 176 175 174 173 171 168 166 164 162 161 159 158 158 157 156 155 154 153 153 153 152 150 149 147 144 142 139 135 133 130 128 125 120 114 112 109 105 101 96 89 80 71 64 58 50 44 38 31
352 352 349 345 343 342 341 341 348 358 2 6 16 7 340 311 292 272 247 232 224 214 206 201 194 188 183 180 178 176 174 174 174 174 173 173 172 172 171 169 167 165 162 160 158 157 156 155 153 152 150 148 147 145 144 146 148 147 145 143 141 139 136 135 133 130 128 125 122 118 115 112 106 98 93 86 77 67 58 50 42 35 30 24 18
351 349 348 344 340 339 337 338 342 350 358 4 17 19 354 315 287 260 230 212 207 199 191 186 180 175 173 171 170 169 168 168 168 168 168 168 168 167 166 164 162 159 156 155 154 151 150 149 147 146 144 143 140 136 135 136 136 138 138 136 134 132 131 129 128 126 125 123 120 117 114 109 101 92 85 75 64 53 43 36 29 21 15 9 5
349 348 347 344 340 337 336 335 336 340 352 1 15 25 9 330 272 234 213 199 195 190 181 176 171 167 167 166 165 165 164 163 163 163 162 162 162 161 160 158 155 152 150 150 148 146 144 143 143 142 141 139 135 131 129 128 127 128 131 131 129 129 128 127 126 124 124 122 120 117 112 104 95 89 84 74 56 41 31 23 16 9 4 359 357
349 348 348 346 341 336 333 332 332 332 341 353 6 23 21 355 217 190 194 189 187 185 177 170 165 163 162 161 162 162 161 159 159 158 157 157 157 155 154 152 150 148 147 146 144 142 139 138 139 139 137 134 130 126 125 124 123 123 125 126 126 126 126 125 123 124 123 123 120 115 107 94 84 75 68 59 39 22 12 4 0 358 356 354 352
349 348 347 346 340 335 330 328 328 325 325 338 356 22 40 51 165 171 180 182 176 173 169 163 160 158 156 156 158 159 159 156 155 155 154 154 153 150 148 148 145 144 143 142 141 139 136 134 133 133 132 129 124 121 119 120 121 121 123 125 124 123 122 122 121 122 122 121 115 105 80 63 57 30 9 5 360 355 351 350 351 350 349 349 347
347 346 346 345 340 335 328 324 325 321 316 324 339 22 78 101 157 163 166 172 167 161 158 154 153 153 152 152 154 155 155 153 151 151 151 149 148 145 143 142 141 140 139 137 136 136 134 132 130 129 127 123 118 115 114 114 115 116 118 122 121 120 121 121 122 120 116 112 93 32 351 357 358 343 340 342 340 339 339 341 343 343 344 345 342
343 343 344 344 340 337 331 325 324 320 312 313 320 352 91 111 157 159 156 162 163 158 153 150 149 149 149 149 150 151 150 148 147 148 147 145 144 141 138 138 139 138 137 135 134 134 134 133 130 126 123 121 118 117 114 111 110 109 110 114 115 117 120 121 121 118 106 88 356 334 332 338 337 333 334 335 334 334 333 333 335 336 338 340 337
339 338 340 342 339 335 331 326 323 319 311 306 304 297 109 127 160 159 153 157 161 159 154 151 148 147 147 148 148 149 148 146 146 145 143 142 141 139 137 138 138 136 134 133 133 133 133 132 128 122 121 121 119 116 112 110 108 105 103 104 104 105 109 112 117 122 100 329 318 322 325 329 329 329 331 331 331 332 331 330 330 331 332 332 330
337 335 335 339 338 333 331 330 324 318 310 301 291 262 149 153 165 158 152 156 160 158 155 154 153 150 149 149 148 149 148 147 146 145 142 140 140 139 138 138 138 135 132 130 131 131 131 128 123 118 118 120 116 112 109 108 103 96 93 90 90 93 95 96 103 352 304 305 309 314 319 322 322 324 327 328 328 329 329 328 328 328 329 328 325
336 335 333 335 338 333 331 333 327 318 311 298 283 253 168 167 171 160 153 156 158 156 154 154 155 154 152 150 149 148 147 146 145 144 142 141 141 140 138 137 136 133 131 128 127 128 127 123 118 113 111 112 110 106 104 100 93 86 81 77 77 81 79 72 56 333 311 310 311 313 316 318 319 322 324 326 327 327 328 328 327 327 327 327 325
332 335 332 331 336 335 333 337 336 327 320 304 283 261 182 165 173 164 157 157 156 153 152 153 154 155 153 151 149 147 146 145 144 143 142 142 141 139 136 135 133 132 130 127 124 124 121 114 109 105 102 100 97 93 89 84 77 72 70 66 64 61 51 38 26 348 325 320 319 318 320 321 320 320 323 325 326 325 325 326 326 326 327 326 325
328 333 331 328 335 340 338 344 346 336 328 315 290 273 214 156 168 169 162 159 155 152 153 153 153 153 151 149 147 146 145 144 141 140 141 139 137 136 134 133 131 129 128 125 122 120 115 106 97 92 88 82 75 68 63 59 56 52 49 48 42 34 21 9 359 344 334 328 323 323 324 323 320 321 323 324 324 323 323 324 325 325 325 324 323
324 330 330 328 333 340 340 345 352 345 335 327 305 283 262 153 162 170 164 158 156 154 153 152 150 150 148 146 145 144 143 142 139 137 136 134 132 131 130 128 127 125 124 122 118 114 110 102 90 81 77 69 58 46 37 35 35 28 19 17 13 5 357 352 343 336 334 329 324 323 323 320 319 321 323 323 322 322 322 322 323 323 322 321 320
324 328 329 330 331 336 342 345 352 355 347 338 321 292 283 163 153 164 163 158 157 155 152 150 149 148 146 145 145 144 143 141 139 136 135 133 131 130 128 127 124 122 121 118 113 108 101 94 82 70 63 55 45 35 25 19 16 10 359 354 352 348 345 342 335 332 330 327 323 322 319 317 318 320 321 321 319 319 320 320 320 320 318 318 317
324 325 328 330 328 331 341 345 348 359 359 352 340 311 300 14 142 156 161 160 157 153 150 149 149 148 146 145 146 146 146 144 141 139 138 137 135 133 132 131 128 127 125 120 111 103 90 78 68 58 49 30 10 12 15 9 1 356 350 343 340 338 335 334 332 329 329 327 323 320 317 315 317 318 317 317 316 316 317 316 316 316 315 314 314
323 322 325 329 327 328 335 342 347 357 3 6 1 336 321 25 123 146 158 159 154 150 148 148 149 149 147 147 148 149 150 149 146 145 144 142 141 140 139 137 136 135 134 130 122 111 95 75 63 54 40 7 346 346 354 354 346 342 339 333 330 328 325 325 325 324 324 323 319 316 314 314 315 315 314 312 311 312 312 312 313 313 312 311 311
322 321 322 326 327 327 330 338 349 357 4 14 19 5 350 21 99 130 147 151 147 144 144 146 148 148 147 149 151 152 152 152 151 151 151 149 147 148 148 147 145 145 145 143 138 128 114 87 60 42 10 340 329 325 329 332 327 323 322 320 318 317 315 315 316 316 315 315 313 311 310 310 311 311 311 310 309 310 310 310 311 310 309 309 309
323 322 324 326 326 327 331 337 348 360 6 14 25 31 20 18 72 114 131 140 139 138 139 143 146 146 147 149 153 153 152 152 152 153 154 154 152 153 155 155 155 156 155 148 143 137 129 113 15 343 320 315 313 311 313 317 315 312 311 310 309 308 307 306 305 304 305 306 306 304 305 306 308 309 309 308 308 309 309 309 309 309 308 308 308
323 322 324 326 326 328 334 337 343 358 7 9 18 35 44 41 59 91 111 126 134 133 134 138 142 144 146 148 150 151 151 151 151 152 154 156 156 159 164 167 166 166 164 156 152 155 171 244 271 285 292 296 299 301 304 308 309 307 304 303 303 301 297 296 296 297 301 302 300 300 302 303 304 304 304 304 305 306 307 307 308 308 308 309 309
325 325 327 329 327 329 336 337 339 351 3 8 13 22 40 63 74 82 92 109 125 128 129 132 136 139 142 143 144 146 148 149 150 152 155 158 161 165 173 179 176 171 169 171 176 180 199 235 254 267 278 284 287 292 299 305 306 304 302 301 300 295 293 293 294 296 297 296 295 296 298 298 299 300 300 301 302 303 304 305 306 307 307 308 309
329 328 329 330 327 329 336 337 336 345 357 9 16 16 24 54 74 84 89 96 108 117 121 126 131 135 138 140 143 145 147 148 151 154 158 162 166 171 178 181 177 170 171 185 197 197 207 235 258 271 276 281 284 289 297 300 299 299 298 298 296 293 293 293 294 294 294 294 294 295 296 296 298 299 299 301 302 302 303 304 304 306 307 308 309
333 332 331 332 331 332 336 336 337 344 355 10 20 20 22 38 57 75 88 92 98 107 114 119 125 131 134 137 141 144 145 148 150 153 159 165 170 177 180 175 166 163 188 232 249 253 257 267 277 282 285 287 289 292 295 295 295 297 297 295 293 292 292 293 293 294 294 294 295 296 297 297 299 300 301 303 303 304 304 305 306 307 309 310 311